Home   Weather   Mwanza   Past weeks

Flag for Tanzania Past Weather in Mwanza, Tanzania — Yesterday and Last 2 Weeks

Now
72 °F

Passing clouds.


Feels Like: 69 °F
Forecast: 68 / 85 °F
Wind: No wind

Location: Mwanza Airport

Current Time: Jan 18, 2017 at 2:57:09 am

Latest Report: Jan 18, 2017 at 12:00 am


Visibility: N/A

Pressure: 29.89 "Hg (26.18 "Hg at 1146m altitude)

Humidity: 88%

Dew Point: 68 °F

Location of MwanzaLocation

Past Weather in Mwanza — Graph

°F

Mwanza Temperature Yesterday

Maximum temperature yesterday: 88 °F (at 2:00 pm)
Minimum temperature yesterday: 68 °F (at 6:00 am)
Average temperature yesterday: 80 °F

High & Low Weather Summary for the Past Weeks

 TemperatureHumidityPressure
High90 °F (Jan 16, 1:00 pm)94% (Jan 3, 7:00 am)30.07 "Hg (Jan 3, 7:00 am)
Low66 °F (Jan 4, 6:00 am)31% (Jan 16, 1:00 pm)29.86 "Hg (Jan 5, 5:00 pm)
Average78 °F64%29.95 "Hg
* Reported Jan 3 12:00 am — Jan 18 12:00 am, Mwanza, Weather by CustomWeather, © 2017

Note: Actual official high and low records may vary slightly from our data, if they occured in-between our weather recording intervals... More about our weather records

Advertising

Mwanza Weather History for the Previous 24 Hours

Scroll right to see more
 ConditionsComfort  
Time TempWeatherWind HumidityBarometerVisibility
12:00 am
Wed, Jan 18
72 °FPassing clouds.No wind88%29.89 "HgN/A
11:00 pm
Tue, Jan 17
77 °FClear.No wind69%29.89 "Hg10 mi
9:00 pm77 °FClear.No wind69%29.89 "Hg10 mi
8:00 pm79 °FClear.9 mph70%29.89 "Hg10 mi
7:00 pm81 °FSunny.10 mph62%29.89 "Hg10 mi
6:00 pm82 °FSunny.12 mph55%29.86 "Hg10 mi
5:00 pm82 °FPartly sunny.12 mph51%29.89 "HgN/A
4:00 pm82 °FPartly sunny.12 mph48%29.89 "HgN/A
3:00 pm86 °FSunny.12 mph40%29.92 "Hg10 mi
2:00 pm88 °FSunny.14 mph33%29.92 "Hg10 mi
1:00 pm86 °FSunny.14 mph33%29.95 "Hg10 mi
12:00 pm84 °FSunny.18 mph35%29.95 "Hg10 mi
11:00 am82 °FSunny.16 mph40%29.98 "Hg10 mi
10:00 am81 °FPassing clouds.12 mph48%29.98 "HgN/A
9:00 am77 °FPassing clouds.7 mph54%29.98 "HgN/A
7:00 am68 °FPassing clouds.6 mph83%29.95 "HgN/A
6:00 am68 °FPassing clouds.12 mph94%29.92 "HgN/A
Weather by CustomWeather, © 2017

See weather overviewHow to use our weather pages